Location: Churchill Northern Studies Centre
(58.7378°N, 93.8201°W)
Time: 19:48:37
(UTC-05:00)

BEESAT 3 - Visible Passes

Search period start: 20 August 2018 00:00
Search period end: 30 August 2018 00:00
Orbit: 504 x 512 km, 64.9° (Epoch: 20 August)

Date Brightness Start Highest point End Pass type
(mag) Time Alt. Az. Time Alt. Az. Time Alt. Az.
20 Aug ? 01:15:33 40° SW 01:16:53 86° SE 01:20:48 10° NE visible
20 Aug ? 02:51:02 10° W 02:54:42 38° NNW 02:58:23 10° NE visible
20 Aug ? 04:29:19 10° WNW 04:32:54 34° N 04:36:30 10° ENE visible
20 Aug ? 23:22:31 19° ESE 23:22:31 19° ESE 23:24:30 10° ENE visible
21 Aug ? 00:57:18 40° SW 00:58:37 85° SE 01:02:32 10° NE visible
21 Aug ? 02:32:45 10° W 02:36:26 38° NNW 02:40:07 10° NE visible
21 Aug ? 04:11:02 10° WNW 04:14:38 34° N 04:18:13 10° ENE visible
21 Aug ? 23:04:08 18° ESE 23:04:08 18° ESE 23:06:13 10° ENE visible
22 Aug ? 00:38:54 37° SW 00:40:21 83° SE 00:44:16 10° NE visible
22 Aug ? 02:14:29 10° W 02:18:09 39° NNW 02:21:51 10° NE visible
22 Aug ? 03:52:46 10° WNW 03:56:21 34° N 03:59:57 10° ENE visible
22 Aug ? 22:45:35 19° ESE 22:45:35 19° ESE 22:47:55 10° ENE visible
23 Aug ? 00:20:20 31° SW 00:22:05 81° SE 00:26:00 10° NE visible
23 Aug ? 01:56:12 10° W 01:59:53 39° NNW 02:03:35 10° NE visible
23 Aug ? 03:34:29 10° WNW 03:38:05 34° N 03:41:40 10° ENE visible
23 Aug ? 22:26:40 19° SE 22:26:51 19° ESE 22:29:37 10° ENE visible
24 Aug ? 00:01:23 22° SW 00:03:49 80° SE 00:07:44 10° NE visible
24 Aug ? 01:37:54 10° W 01:41:36 39° NNW 01:45:18 10° NE visible
24 Aug ? 03:16:13 10° WNW 03:19:48 34° N 03:23:23 10° ENE visible
24 Aug ? 04:53:56 10° NW 04:57:49 64° NNE 05:01:40 10° ESE visible
24 Aug ? 22:06:50 14° SSE 22:08:36 18° ESE 22:11:19 10° ENE visible
24 Aug ? 23:41:40 10° SW 23:45:33 78° SE 23:49:27 10° NE visible
25 Aug ? 01:19:37 10° W 01:23:19 40° NNW 01:27:01 10° NE visible
25 Aug ? 02:57:55 10° WNW 03:01:31 34° N 03:05:05 10° ENE visible
25 Aug ? 04:35:40 10° NW 04:39:32 63° NNE 04:43:23 10° ESE visible
25 Aug ? 21:47:41 10° SSE 21:50:20 18° ESE 21:53:00 10° ENE visible
25 Aug ? 23:23:23 10° SW 23:27:16 77° SE 23:31:11 10° NE visible
26 Aug ? 01:01:20 10° W 01:05:03 40° NNW 01:08:45 10° NE visible
26 Aug ? 02:39:38 10° WNW 02:43:13 33° N 02:46:48 10° ENE visible
26 Aug ? 04:17:22 10° NW 04:21:15 61° NNE 04:25:06 10° ESE visible
26 Aug ? 21:29:29 10° SSE 21:32:05 17° ESE 21:34:41 10° ENE visible
26 Aug ? 23:05:07 10° SW 23:09:00 75° SE 23:12:54 10° NE visible
27 Aug ? 00:43:02 10° W 00:46:45 41° NNW 00:50:28 10° NE visible
27 Aug ? 02:21:21 10° WNW 02:24:56 33° N 02:28:31 10° ENE visible
27 Aug ? 03:59:06 10° NW 04:02:59 60° NNE 04:06:49 10° ESE visible
27 Aug ? 21:11:17 10° SSE 21:13:49 17° ESE 21:16:23 10° ENE visible
27 Aug ? 22:46:51 10° SW 22:50:44 73° SE 22:54:37 10° NE visible
28 Aug ? 00:24:45 10° W 00:28:28 41° NNW 00:32:11 10° NE visible
28 Aug ? 02:03:04 10° WNW 02:06:39 33° N 02:10:13 10° ENE visible
28 Aug ? 03:40:50 10° NW 03:44:42 59° NNE 03:48:32 10° ESE visible
28 Aug ? 05:18:28 10° WNW 05:22:05 37° SW 05:25:40 10° SSE visible
28 Aug ? 22:28:34 10° SW 22:32:27 72° SE 22:36:21 10° NE visible
29 Aug ? 00:06:27 10° W 00:10:11 41° NNW 00:13:54 10° NE visible
29 Aug ? 01:44:47 10° WNW 01:48:21 33° N 01:51:55 10° ENE visible
29 Aug ? 03:22:32 10° NW 03:26:24 58° NNE 03:30:15 10° ESE visible
29 Aug ? 05:00:10 10° WNW 05:03:48 38° SW 05:07:25 10° SSE visible
29 Aug ? 22:10:18 10° SW 22:14:10 70° SE 22:18:03 10° NE visible
29 Aug ? 23:48:09 10° W 23:51:53 42° NNW 23:55:37 10° NE visible
